Location: Newark
(41.7772°N, 74.7403°W)
Time: 05:14:34
(UTC+00:00)

S-56A Canister/Altair - Visible Passes

Search period start: 06 June 2020 00:00
Search period end: 16 June 2020 00:00
Orbit: 633 x 2499 km, 38.9° (Epoch: 05 June)

Date Brightness Start Highest point End Pass type
(mag) Time Alt. Az. Time Alt. Az. Time Alt. Az.
06 Jun 8.1 08:01:51 19° SW 08:05:11 46° SSE 08:11:23 10° E visible
07 Jun 8.1 07:30:43 28° SSW 07:32:39 40° SSE 07:38:13 10° E visible
08 Jun 8.0 06:59:37 33° S 07:00:10 34° SSE 07:05:07 10° E visible
09 Jun 8.4 06:28:28 28° SE 06:28:28 28° SE 06:32:06 10° E visible
09 Jun 7.7 08:26:06 10° WSW 08:30:51 65° S 08:37:22 10° E visible
10 Jun 9.1 05:57:20 18° ESE 05:57:20 18° ESE 05:59:09 10° E visible
10 Jun 7.5 07:54:44 17° WSW 07:58:17 62° S 08:04:14 10° E visible
11 Jun 9.7 05:26:12 10° E 05:26:12 10° E 05:26:14 10° E visible
11 Jun 7.4 07:23:37 30° SW 07:25:44 57° S 07:31:12 10° E visible
12 Jun 7.3 06:52:29 47° SSW 06:53:13 53° SSE 06:58:16 10° E visible
13 Jun 7.6 06:21:21 44° SE 06:21:21 44° SE 06:25:25 10° E visible
13 Jun 7.5 08:19:31 10° W 08:24:06 62° S 08:30:07 10° ESE visible
14 Jun 8.5 05:50:16 26° ESE 05:50:16 26° ESE 05:52:39 10° E visible
14 Jun 7.3 07:47:40 14° W 07:51:32 63° S 07:57:06 10° ESE visible
15 Jun 9.3 05:19:11 14° E 05:19:11 14° E 05:19:58 10° E visible
15 Jun 7.2 07:16:36 26° WSW 07:19:01 63° S 07:24:10 10° E visible
